Location: Drignac
(45.1667°N, 2.0333°E)
Time: 16:11:29
(UTC+00:00)

Cosmos 1269 Rocket - Pass Details

Date: 29 March 2020
Orbit: 773 x 779 km, 74.1° (Epoch: 02 June)

Event Time Altitude Azimuth Distance (km) Brightness Sun altitude
Rises 19:20:21 0° 196° (SSW) 3,236 7.2 -11.8°
Reaches altitude 10° 19:22:43 10° 195° (SSW) 2,314 6.5 -12.2°
Maximum altitude 19:27:58 80° 110° (ESE) 792 3.9 -13.1°
Drops below altitude 10° 19:33:17 10° 23° (NNE) 2,335 6.5 -14.0°
Sets 19:35:41 0° 23° (NNE) 3,268 7.2 -14.4°
